Time,TemperatureF,DewpointF,PressureIn,WindDirection,WindDirectionDegrees,WindSpeedMPH,WindSpeedGustMPH,Humidity,HourlyPrecipIn,Conditions,Clouds,dailyrainin,SoftwareType,DateUTC
2013-10-28 00:13:00,52.0,32.0,29.91,SSE,161,4.0,10.0,47,0.00,,,0.00,,2013-10-28 05:13:00,
2013-10-28 00:22:00,53.0,33.0,29.91,SE,145,5.0,11.0,47,0.00,,,0.00,,2013-10-28 05:22:00,
2013-10-28 00:42:00,52.0,32.0,29.91,SSE,160,4.0,9.0,47,0.00,,,0.00,,2013-10-28 05:42:00,
2013-10-28 00:53:00,52.0,32.0,29.90,SSE,157,7.0,13.0,47,0.00,,,0.00,,2013-10-28 05:53:00,
2013-10-28 01:12:00,52.0,32.0,29.90,SSE,156,5.0,12.0,47,0.00,,,0.00,,2013-10-28 06:12:00,
2013-10-28 01:22:00,52.0,33.0,29.91,SSW,194,4.0,12.0,48,0.00,,,0.00,,2013-10-28 06:22:00,
2013-10-28 01:43:00,51.0,33.0,29.91,South,185,5.0,10.0,49,0.00,,,0.00,,2013-10-28 06:43:00,
2013-10-28 01:52:00,51.0,33.0,29.91,South,175,4.0,11.0,50,0.00,,,0.00,,2013-10-28 06:52:00,
2013-10-28 02:12:00,50.0,33.0,29.90,South,171,4.0,7.0,51,0.00,,,0.00,,2013-10-28 07:12:00,
2013-10-28 02:22:00,50.0,34.0,29.90,SSE,159,4.0,6.0,53,0.00,,,0.00,,2013-10-28 07:22:00,
2013-10-28 02:42:00,49.0,33.0,29.93,SSE,165,4.0,7.0,54,0.00,,,0.00,,2013-10-28 07:42:00,
2013-10-28 02:52:00,50.0,34.0,29.93,South,173,3.0,7.0,54,0.00,,,0.00,,2013-10-28 07:52:00,
2013-10-28 03:12:00,50.0,35.0,29.93,South,172,4.0,7.0,56,0.00,,,0.00,,2013-10-28 08:12:00,
2013-10-28 03:22:00,50.0,35.0,29.93,SSE,160,5.0,6.0,57,0.00,,,0.00,,2013-10-28 08:22:00,
2013-10-28 03:42:00,51.0,36.0,29.93,South,184,4.0,7.0,57,0.00,,,0.00,,2013-10-28 08:42:00,
2013-10-28 03:52:00,51.0,37.0,29.93,SE,144,4.0,10.0,59,0.00,,,0.00,,2013-10-28 08:52:00,
2013-10-28 04:11:00,51.0,38.0,29.93,SSE,168,5.0,13.0,61,0.00,,,0.00,,2013-10-28 09:11:00,
2013-10-28 04:22:00,51.0,39.0,29.93,South,169,3.0,9.0,63,0.00,,,0.00,,2013-10-28 09:22:00,
2013-10-28 04:43:00,51.0,40.0,29.93,SSW,206,5.0,12.0,66,0.00,,,0.00,,2013-10-28 09:43:00,
2013-10-28 04:53:00,51.0,41.0,29.93,South,169,5.0,8.0,68,0.00,,,0.00,,2013-10-28 09:53:00,
2013-10-28 05:13:00,51.0,42.0,29.93,SSE,161,6.0,14.0,70,0.00,,,0.00,,2013-10-28 10:13:00,
2013-10-28 05:23:00,51.0,43.0,29.93,South,179,7.0,11.0,73,0.00,,,0.00,,2013-10-28 10:23:00,
2013-10-28 05:43:00,51.0,43.0,29.93,South,182,6.0,11.0,75,0.00,,,0.00,,2013-10-28 10:43:00,
2013-10-28 05:53:00,50.0,43.0,29.94,SSE,155,5.0,12.0,76,0.00,,,0.00,,2013-10-28 10:53:00,
2013-10-28 06:12:00,49.0,43.0,29.94,South,186,5.0,9.0,79,0.00,,,0.00,,2013-10-28 11:12:00,
2013-10-28 06:22:00,49.0,43.0,29.94,SSE,166,6.0,11.0,81,0.00,,,0.00,,2013-10-28 11:22:00,
2013-10-28 06:42:00,50.0,44.0,29.95,South,173,7.0,12.0,81,0.00,,,0.00,,2013-10-28 11:42:00,
2013-10-28 06:52:00,51.0,46.0,29.95,South,179,9.0,14.0,83,0.00,,,0.00,,2013-10-28 11:52:00,
2013-10-28 07:12:00,51.0,46.0,29.96,South,170,6.0,13.0,84,0.00,,,0.00,,2013-10-28 12:12:00,
2013-10-28 07:21:00,51.0,47.0,29.96,South,178,7.0,11.0,85,0.00,,,0.00,,2013-10-28 12:21:00,
2013-10-28 07:42:00,51.0,47.0,29.96,South,182,6.0,13.0,86,0.00,,,0.00,,2013-10-28 12:42:00,
2013-10-28 07:52:00,50.0,46.0,29.97,SSE,155,5.0,11.0,86,0.00,,,0.00,,2013-10-28 12:52:00,
2013-10-28 08:11:00,50.0,47.0,29.98,South,190,2.0,6.0,88,0.00,,,0.00,,2013-10-28 13:11:00,
2013-10-28 08:22:00,50.0,47.0,29.98,South,183,2.0,7.0,89,0.00,,,0.00,,2013-10-28 13:22:00,
2013-10-28 08:42:00,51.0,48.0,29.99,SSW,198,5.0,7.0,91,0.00,,,0.00,,2013-10-28 13:42:00,
2013-10-28 08:52:00,51.0,48.0,29.99,South,190,5.0,9.0,91,0.00,,,0.00,,2013-10-28 13:52:00,
2013-10-28 09:11:00,52.0,49.0,29.99,South,180,5.0,13.0,91,0.00,,,0.00,,2013-10-28 14:11:00,
2013-10-28 09:22:00,53.0,50.0,29.99,South,180,8.0,12.0,91,0.00,,,0.00,,2013-10-28 14:22:00,
2013-10-28 09:42:00,53.0,50.0,29.99,South,190,10.0,17.0,91,0.00,,,0.00,,2013-10-28 14:42:00,
2013-10-28 09:52:00,54.0,51.0,30.01,SSE,167,7.0,16.0,91,0.00,,,0.00,,2013-10-28 14:52:00,
2013-10-28 10:11:00,55.0,52.0,30.01,South,178,12.0,20.0,90,0.00,,,0.00,,2013-10-28 15:11:00,
2013-10-28 10:22:00,55.0,52.0,30.02,SSE,168,9.0,18.0,89,0.00,,,0.00,,2013-10-28 15:22:00,
2013-10-28 10:43:00,56.0,52.0,30.02,SSE,159,12.0,19.0,88,0.00,,,0.00,,2013-10-28 15:43:00,
2013-10-28 10:53:00,57.0,53.0,30.03,SSE,166,9.0,17.0,86,0.00,,,0.00,,2013-10-28 15:53:00,
2013-10-28 11:13:00,58.0,54.0,30.02,South,184,11.0,16.0,85,0.00,,,0.00,,2013-10-28 16:13:00,
2013-10-28 11:23:00,58.0,53.0,30.02,SE,138,9.0,17.0,83,0.00,,,0.00,,2013-10-28 16:23:00,
2013-10-28 11:43:00,59.0,54.0,30.02,South,169,8.0,17.0,82,0.00,,,0.00,,2013-10-28 16:43:00,
2013-10-28 11:53:00,61.0,55.0,30.02,South,171,10.0,17.0,80,0.00,,,0.00,,2013-10-28 16:53:00,
2013-10-28 12:12:00,61.0,54.0,30.03,SSE,156,9.0,17.0,79,0.00,,,0.00,,2013-10-28 17:12:00,
2013-10-28 12:22:00,61.0,54.0,30.02,South,171,9.0,15.0,78,0.00,,,0.00,,2013-10-28 17:22:00,
2013-10-28 12:42:00,63.0,55.0,30.02,SSE,151,13.0,19.0,75,0.00,,,0.00,,2013-10-28 17:42:00,
2013-10-28 12:52:00,63.0,55.0,30.03,South,182,12.0,19.0,74,0.00,,,0.00,,2013-10-28 17:52:00,
2013-10-28 13:12:00,63.0,54.0,30.03,SSE,166,12.0,20.0,73,0.00,,,0.00,,2013-10-28 18:12:00,
2013-10-28 13:21:00,64.0,55.0,30.02,SSE,167,9.0,18.0,72,0.00,,,0.00,,2013-10-28 18:21:00,
2013-10-28 13:52:00,62.0,54.0,30.02,South,178,8.0,19.0,74,0.00,,,0.00,,2013-10-28 18:52:00,
2013-10-28 14:11:00,62.0,54.0,30.01,SSE,163,13.0,20.0,75,0.00,,,0.00,,2013-10-28 19:11:00,
2013-10-28 14:22:00,62.0,54.0,30.01,SSE,150,9.0,20.0,75,0.00,,,0.00,,2013-10-28 19:22:00,
2013-10-28 14:42:00,63.0,55.0,30.00,South,184,11.0,19.0,74,0.00,,,0.00,,2013-10-28 19:42:00,
2013-10-28 14:52:00,63.0,54.0,30.00,SE,142,10.0,17.0,73,0.00,,,0.00,,2013-10-28 19:52:00,
2013-10-28 15:12:00,64.0,54.0,29.99,SSE,159,14.0,20.0,71,0.00,,,0.00,,2013-10-28 20:12:00,
2013-10-28 15:22:00,64.0,55.0,29.98,SE,128,12.0,19.0,72,0.00,,,0.00,,2013-10-28 20:22:00,
2013-10-28 15:52:00,64.0,54.0,29.97,SSE,153,15.0,21.0,70,0.00,,,0.00,,2013-10-28 20:52:00,
2013-10-28 16:21:00,65.0,55.0,29.96,SE,146,12.0,19.0,71,0.00,,,0.00,,2013-10-28 21:21:00,
2013-10-28 16:43:00,64.0,55.0,29.97,SSE,153,14.0,18.0,72,0.00,,,0.00,,2013-10-28 21:43:00,
2013-10-28 16:53:00,62.0,54.0,29.97,SSE,147,12.0,19.0,75,0.00,,,0.00,,2013-10-28 21:53:00,
2013-10-28 17:23:00,62.0,55.0,29.98,SE,144,12.0,17.0,77,0.00,,,0.00,,2013-10-28 22:23:00,
2013-10-28 17:43:00,62.0,55.0,29.98,SSE,160,12.0,16.0,77,0.00,,,0.00,,2013-10-28 22:43:00,
2013-10-28 17:53:00,62.0,55.0,29.98,SE,144,11.0,14.0,77,0.00,,,0.00,,2013-10-28 22:53:00,
2013-10-28 18:12:00,61.0,54.0,29.98,ESE,122,10.0,13.0,78,0.00,,,0.00,,2013-10-28 23:12:00,
2013-10-28 18:22:00,62.0,55.0,29.97,SSE,147,11.0,16.0,78,0.00,,,0.00,,2013-10-28 23:22:00,
2013-10-28 18:42:00,61.0,54.0,29.97,SE,134,10.0,14.0,78,0.00,,,0.00,,2013-10-28 23:42:00,
2013-10-28 18:52:00,61.0,54.0,29.97,SE,136,9.0,13.0,79,0.00,,,0.00,,2013-10-28 23:52:00,
2013-10-28 19:11:00,61.0,54.0,29.97,SE,135,11.0,18.0,79,0.00,,,0.00,,2013-10-29 00:11:00,
2013-10-28 19:22:00,61.0,54.0,29.98,SE,128,12.0,17.0,79,0.00,,,0.00,,2013-10-29 00:22:00,
2013-10-28 19:42:00,61.0,55.0,29.98,SE,127,10.0,15.0,80,0.00,,,0.00,,2013-10-29 00:42:00,
2013-10-28 19:52:00,60.0,54.0,29.99,SE,133,10.0,14.0,80,0.00,,,0.00,,2013-10-29 00:52:00,
2013-10-28 20:11:00,60.0,54.0,30.00,SSE,161,11.0,18.0,80,0.00,,,0.00,,2013-10-29 01:11:00,
2013-10-28 20:21:00,60.0,54.0,30.01,SE,139,13.0,16.0,80,0.00,,,0.00,,2013-10-29 01:21:00,
2013-10-28 20:42:00,60.0,54.0,30.01,SE,138,12.0,17.0,80,0.00,,,0.00,,2013-10-29 01:42:00,
2013-10-28 20:52:00,60.0,54.0,30.01,SSE,150,11.0,18.0,81,0.00,,,0.00,,2013-10-29 01:52:00,
2013-10-28 21:11:00,59.0,53.0,30.01,SE,142,10.0,14.0,81,0.00,,,0.00,,2013-10-29 02:11:00,
2013-10-28 21:21:00,59.0,53.0,30.02,SSE,157,7.0,13.0,81,0.00,,,0.00,,2013-10-29 02:21:00,
2013-10-28 21:44:00,60.0,54.0,30.01,SE,125,10.0,15.0,81,0.00,,,0.00,,2013-10-29 02:44:00,
2013-10-28 21:53:00,60.0,54.0,30.00,SE,136,10.0,15.0,81,0.00,,,0.00,,2013-10-29 02:53:00,
2013-10-28 22:14:00,60.0,54.0,30.01,SE,140,11.0,17.0,80,0.00,,,0.00,,2013-10-29 03:14:00,
2013-10-28 22:27:00,60.0,54.0,30.01,SSE,147,11.0,16.0,80,0.00,,,0.00,,2013-10-29 03:27:00,
2013-10-28 22:40:00,-999.0,-99.9,30.01,SSE,152,9.0,17.0,79,0.00,,,0.00,,2013-10-29 03:40:00,
2013-10-28 22:47:00,60.0,53.0,30.01,SSE,152,9.0,17.0,79,0.00,,,0.00,,2013-10-29 03:47:00,
2013-10-28 22:55:00,60.0,53.0,30.01,SE,134,9.0,15.0,79,0.00,,,0.00,,2013-10-29 03:55:00,
2013-10-28 23:14:00,60.0,53.0,30.00,SE,144,10.0,18.0,79,0.00,,,0.00,,2013-10-29 04:14:00,
2013-10-28 23:24:00,60.0,53.0,30.00,SSE,165,11.0,15.0,79,0.00,,,0.00,,2013-10-29 04:24:00,
2013-10-28 23:44:00,60.0,53.0,29.99,SE,140,13.0,16.0,79,0.00,,,0.00,,2013-10-29 04:44:00,
2013-10-28 23:57:00,60.0,53.0,29.99,SSE,166,11.0,17.0,78,0.00,,,0.00,,2013-10-29 04:57:00,